UKV5035 ROAH-RORS

Flight info

Callsign UKV5035
Flight time 0h 31m
Altitude 24000
Route GANJU Y576 DIANA
Aircraft A321/M-SDE3FGHIRWY/LB1

Departure

Time 2026-05-07 19:47
Airport Naha International Airport (ROAH)

Arrival

Time 2026-05-07 20:19
Airport Shimojishima Airport (RORS)
Time Latitude Longitude Altitude Speed Heading
2026-05-07 19:39 26.20442 127.64866 21 ft 0 kts 46°
2026-05-07 19:42 26.20442 127.64865 21 ft 2 kts 46°
2026-05-07 19:42 26.20425 127.64845 21 ft 4 kts 46°
2026-05-07 19:43 26.20406 127.64823 20 ft 4 kts 45°
2026-05-07 19:43 26.20386 127.64805 21 ft 4 kts 21°
2026-05-07 19:43 26.20362 127.64801 20 ft 4 kts 331°
2026-05-07 19:43 26.20354 127.64808 19 ft 0 kts 306°
2026-05-07 19:45 26.20361 127.64802 20 ft 5 kts 323°
2026-05-07 19:45 26.20450 127.64772 19 ft 16 kts 339°
2026-05-07 19:46 26.20578 127.64747 17 ft 24 kts 356°
2026-05-07 19:46 26.20762 127.64738 17 ft 27 kts 357°
2026-05-07 19:46 26.20893 127.64716 17 ft 15 kts 313°
2026-05-07 19:46 26.20900 127.64587 17 ft 19 kts 262°
2026-05-07 19:47 26.20751 127.64533 19 ft 48 kts 178°
2026-05-07 19:47 26.20149 127.64564 17 ft 122 kts 178°
2026-05-07 19:47 26.19089 127.64618 82 ft 176 kts 176°
2026-05-07 19:47 26.17881 127.64671 955 ft 171 kts 177°
2026-05-07 19:48 26.16696 127.64724 1980 ft 172 kts 178°
2026-05-07 19:48 26.15503 127.64776 2553 ft 178 kts 179°
2026-05-07 19:48 26.14183 127.64828 2761 ft 201 kts 179°
2026-05-07 19:48 26.12694 127.64881 2974 ft 226 kts 181°
2026-05-07 19:49 26.11051 127.64607 3293 ft 251 kts 195°
2026-05-07 19:49 26.09339 127.64022 3910 ft 261 kts 199°
2026-05-07 19:49 26.07610 127.63339 4716 ft 266 kts 200°
2026-05-07 19:49 26.05883 127.62645 5510 ft 268 kts 200°
2026-05-07 19:50 26.04107 127.61947 6344 ft 271 kts 200°
2026-05-07 19:50 26.02305 127.61264 7118 ft 274 kts 200°
2026-05-07 19:50 26.00480 127.60594 7914 ft 277 kts 200°
2026-05-07 19:50 25.98647 127.59932 8682 ft 280 kts 200°
2026-05-07 19:51 25.96847 127.59096 9448 ft 281 kts 212°
2026-05-07 19:51 25.95295 127.57777 10178 ft 282 kts 227°
2026-05-07 19:51 25.94018 127.56113 10597 ft 296 kts 232°
2026-05-07 19:51 25.92668 127.54271 10757 ft 319 kts 232°
2026-05-07 19:52 25.91217 127.52287 10882 ft 342 kts 232°
2026-05-07 19:52 25.89673 127.50175 11000 ft 362 kts 232°
2026-05-07 19:52 25.88035 127.47943 11123 ft 381 kts 232°
2026-05-07 19:52 25.86329 127.45626 11455 ft 391 kts 232°
2026-05-07 19:53 25.84597 127.43269 12000 ft 395 kts 233°
2026-05-07 19:53 25.83126 127.40720 12563 ft 398 kts 244°
2026-05-07 19:53 25.82129 127.37849 13135 ft 400 kts 255°
2026-05-07 19:53 25.81677 127.34795 13706 ft 403 kts 266°
2026-05-07 19:54 25.81775 127.31668 14230 ft 406 kts 275°
2026-05-07 19:54 25.82070 127.28538 14749 ft 409 kts 275°
2026-05-07 19:54 25.82364 127.25427 15252 ft 411 kts 275°
2026-05-07 19:54 25.82670 127.22270 15750 ft 413 kts 275°
2026-05-07 19:55 25.82979 127.19092 16253 ft 415 kts 275°
2026-05-07 19:55 25.83285 127.15893 16734 ft 417 kts 275°
2026-05-07 19:55 25.83583 127.12685 17207 ft 419 kts 275°
2026-05-07 19:55 25.83880 127.09458 17659 ft 421 kts 275°
2026-05-07 19:56 25.84178 127.06208 18099 ft 424 kts 274°
2026-05-07 19:56 25.84476 127.02942 18497 ft 426 kts 274°
2026-05-07 19:56 25.84776 126.99666 18856 ft 428 kts 274°
2026-05-07 19:56 25.85076 126.96374 19224 ft 430 kts 275°
2026-05-07 19:57 25.85373 126.93097 19573 ft 432 kts 275°
2026-05-07 19:57 25.85671 126.89774 19920 ft 434 kts 275°
2026-05-07 19:57 25.85971 126.86427 20258 ft 436 kts 275°
2026-05-07 19:57 25.86273 126.83068 20594 ft 438 kts 275°
2026-05-07 19:58 25.86577 126.79689 20919 ft 440 kts 275°
2026-05-07 19:58 25.86767 126.76283 21229 ft 442 kts 269°
2026-05-07 19:58 25.86452 126.72888 21532 ft 444 kts 259°
2026-05-07 19:58 25.85596 126.69582 21821 ft 447 kts 250°
2026-05-07 19:59 25.84252 126.66503 22097 ft 451 kts 242°
2026-05-07 19:59 25.82690 126.63465 22400 ft 453 kts 242°
2026-05-07 19:59 25.81125 126.60416 22702 ft 455 kts 242°
2026-05-07 19:59 25.79555 126.57355 23000 ft 457 kts 242°
2026-05-07 20:00 25.77974 126.54281 23314 ft 460 kts 242°
2026-05-07 20:00 25.76381 126.51184 23500 ft 465 kts 242°
2026-05-07 20:00 25.74770 126.48054 23615 ft 470 kts 242°
2026-05-07 20:00 25.73143 126.44895 23725 ft 474 kts 242°
2026-05-07 20:01 25.71503 126.41717 23869 ft 476 kts 242°
2026-05-07 20:01 25.69854 126.38527 23960 ft 476 kts 242°
2026-05-07 20:01 25.68204 126.35336 23981 ft 476 kts 242°
2026-05-07 20:01 25.66559 126.32151 23980 ft 476 kts 242°
2026-05-07 20:02 25.64936 126.29006 23981 ft 476 kts 242°
2026-05-07 20:02 25.63286 126.25815 23980 ft 476 kts 242°
2026-05-07 20:02 25.61637 126.22627 23979 ft 476 kts 242°
2026-05-07 20:02 25.59988 126.19439 23981 ft 477 kts 242°
2026-05-07 20:03 25.58890 126.17321 23969 ft 477 kts 242°
2026-05-07 20:03 25.56698 126.13093 23981 ft 477 kts 242°
2026-05-07 20:03 25.55042 126.09903 23979 ft 477 kts 242°
2026-05-07 20:03 25.53389 126.06718 23978 ft 477 kts 242°
2026-05-07 20:04 25.52292 126.04607 23982 ft 477 kts 242°
2026-05-07 20:04 25.50637 126.01424 23981 ft 477 kts 242°
2026-05-07 20:04 25.48981 125.98243 23480 ft 475 kts 242°
2026-05-07 20:04 25.47353 125.95123 22411 ft 456 kts 241°
2026-05-07 20:05 25.45791 125.92131 20742 ft 443 kts 241°
2026-05-07 20:05 25.44272 125.89218 19168 ft 431 kts 241°
2026-05-07 20:05 25.42791 125.86377 17560 ft 419 kts 241°
2026-05-07 20:05 25.41351 125.83616 16072 ft 408 kts 241°
2026-05-07 20:06 25.39994 125.81021 15559 ft 379 kts 241°
2026-05-07 20:06 25.38672 125.78492 14944 ft 383 kts 241°
2026-05-07 20:06 25.37335 125.75933 14301 ft 383 kts 241°
2026-05-07 20:06 25.36002 125.73382 13627 ft 383 kts 241°
2026-05-07 20:07 25.34670 125.70837 12943 ft 381 kts 240°
2026-05-07 20:07 25.33355 125.68353 12320 ft 377 kts 240°
2026-05-07 20:07 25.32028 125.65865 11702 ft 374 kts 240°
2026-05-07 20:07 25.30718 125.63416 11326 ft 363 kts 240°
2026-05-07 20:08 25.29461 125.61065 11209 ft 346 kts 240°
2026-05-07 20:08 25.28262 125.58823 11087 ft 331 kts 240°
2026-05-07 20:08 25.27113 125.56676 10968 ft 317 kts 240°
2026-05-07 20:08 25.26013 125.54621 10843 ft 304 kts 240°
2026-05-07 20:09 25.24956 125.52644 10715 ft 293 kts 240°
2026-05-07 20:09 25.23945 125.50749 10497 ft 286 kts 240°
2026-05-07 20:09 25.22939 125.48865 10442 ft 285 kts 240°
2026-05-07 20:10 25.20915 125.45079 10253 ft 285 kts 240°
2026-05-07 20:10 25.19907 125.43192 10139 ft 285 kts 240°
2026-05-07 20:10 25.18901 125.41313 9987 ft 285 kts 240°
2026-05-07 20:10 25.17882 125.39406 9499 ft 288 kts 240°
2026-05-07 20:11 25.16868 125.37515 9179 ft 284 kts 240°
2026-05-07 20:11 25.15873 125.35660 8788 ft 284 kts 240°
2026-05-07 20:11 25.14868 125.33787 8408 ft 283 kts 239°
2026-05-07 20:11 25.13868 125.31923 8042 ft 281 kts 239°
2026-05-07 20:12 25.12885 125.30089 7412 ft 276 kts 239°
2026-05-07 20:12 25.11909 125.28272 6672 ft 274 kts 239°
2026-05-07 20:12 25.10944 125.26473 6047 ft 268 kts 239°
2026-05-07 20:12 25.09963 125.24728 5564 ft 267 kts 233°
2026-05-07 20:13 25.08862 125.23113 5106 ft 267 kts 233°
2026-05-07 20:13 25.07742 125.21462 4652 ft 271 kts 233°
2026-05-07 20:13 25.06620 125.19807 4309 ft 268 kts 233°
2026-05-07 20:13 25.05495 125.18148 3927 ft 268 kts 233°
2026-05-07 20:14 25.04392 125.16527 3730 ft 260 kts 233°
2026-05-07 20:14 25.03326 125.14960 3607 ft 249 kts 232°
2026-05-07 20:14 25.02330 125.13495 3492 ft 228 kts 232°
2026-05-07 20:14 25.01403 125.12129 3405 ft 224 kts 232°
2026-05-07 20:15 25.00375 125.10852 3300 ft 222 kts 215°
2026-05-07 20:15 24.98952 125.10225 3143 ft 224 kts 186°
2026-05-07 20:15 24.97430 125.10429 2804 ft 222 kts 166°
2026-05-07 20:15 24.95935 125.10860 2492 ft 221 kts 167°
2026-05-07 20:16 24.94440 125.11278 2178 ft 220 kts 167°
2026-05-07 20:16 24.92978 125.11681 1875 ft 219 kts 167°
2026-05-07 20:16 24.91542 125.12074 1665 ft 207 kts 166°
2026-05-07 20:16 24.90163 125.12452 1605 ft 198 kts 167°
2026-05-07 20:17 24.88929 125.12787 1473 ft 172 kts 167°
2026-05-07 20:17 24.87814 125.13086 1107 ft 155 kts 166°
2026-05-07 20:17 24.86793 125.13364 692 ft 150 kts 166°
2026-05-07 20:17 24.85808 125.13640 417 ft 143 kts 165°
2026-05-07 20:18 24.84845 125.13905 218 ft 141 kts 164°
2026-05-07 20:18 24.83901 125.14161 62 ft 139 kts 165°
2026-05-07 20:18 24.83021 125.14415 28 ft 116 kts 166°
2026-05-07 20:18 24.82397 125.14574 40 ft 59 kts 166°
2026-05-07 20:19 24.82130 125.14651 46 ft 34 kts 162°
2026-05-07 20:19 24.81969 125.14801 44 ft 17 kts 109°
2026-05-07 20:19 24.82037 125.14889 46 ft 16 kts 15°
2026-05-07 20:19 24.82137 125.14842 44 ft 17 kts 338°
2026-05-07 20:20 24.82263 125.14809 41 ft 21 kts 347°
2026-05-07 20:20 24.82411 125.14771 38 ft 20 kts 346°
2026-05-07 20:20 24.82525 125.14740 36 ft 13 kts 346°
2026-05-07 20:20 24.82625 125.14711 34 ft 16 kts 345°
2026-05-07 20:21 24.82747 125.14674 31 ft 20 kts 347°
2026-05-07 20:21 24.82850 125.14659 29 ft 9 kts 27°
2026-05-07 20:21 24.82870 125.14719 30 ft 9 kts 82°
2026-05-07 20:21 24.82880 125.14763 31 ft 1 kts 76°
2026-05-07 20:22 24.82884 125.14776 30 ft 3 kts 76°
2026-05-07 20:22 24.82886 125.14788 31 ft 0 kts 75°